www.pogodaiklimat.ru

Погода и климат >> Архив погоды >> Чехия >> Усти-над-Лабем


ПОГОДА в Усти-над-Лабем

  • Прогноз погоды в Усти-над-Лабем
  • Монитор погоды в Усти-над-Лабем

АРХИВ ПОГОДЫ в Усти-над-Лабем

Время (UTC), дата Ветер
(напр.,м/с)
 
Видим.   Явления Облачность Т
(С)
Тd
(С)
f
(%)
Тe
(С)
Тes
(С)
Комфортность P
(гПа)
Po
(гПа)
Тmin
(С)
Tmax
(С)
R
(мм)
R24
(мм)
S
(см)
01 12.08 С 2 25 км н/о +16.7 +16.3 97 +17 +17 1014.4 970.6
02 12.08 Ю 2 25 км н/о +16.3 +15.8 97 +16 +16 1014.3 970.4
03 12.08 СВ 5 35 км {дымка} н/о +16.9 +13.6 81 +16 +16 1014.3 970.5
04 12.08 С 4 35 км н/о +16.4 +12.2 76 +16 +16 1014.8 970.8
05 12.08 С 5 27 км слаб. ливневой дождь н/о +16.1 +12.2 78 +15 +15 1015.5 971.5
06 12.08 С 3 >70 км слаб. дождь 10/9 1500 м
[Sc As op]
+16.2 +11.3 73 +16 +16 1016.2 972.1 +15.7 5
07 12.08 СЗ 2 60 км слаб. дождь 9/8 1110 м
[Sc Ac As]
+16.7 +11.4 71 +17 +18 1015.6 971.6
08 12.08 С 3 30 км в посл. час дождь 9/1 1110 м
[Sc Ac As]
+17.6 +10.9 65 +18 +20 1015.7 971.9
09 12.08 СЗ 2 25 км слаб. дождь 9/8 1140 м
[Sc Ac As]
+16.6 +11.9 74 +17 +18 1016.7 972.7
10 12.08 ЮЗ 1 70 км в посл. час дождь 9/8 1110 м
[Sc Ac As]
+17.5 +13.1 75 +19 +21 1016.4 972.6
11 12.08 ЮЗ 2 65 км слаб. дождь 9/4 1260 м
[Sc Ac As]
+16.5 +13.6 83 +17 +20 1016.8 972.8
12 12.08 Ю 2 65 км слаб. дождь 9/4 870 м
[Cu Sc Ac As]
+17.0 +13.9 82 +17 +21 1016.7 972.8 0.5
13 12.08 ЮВ 2 60 км слаб. дождь 9/5 1000 м
[Cu Sc Ac As]
+16.5 +14.2 86 +17 +19 1015.5 971.6
14 12.08 ЮЗ 2 60 км в посл. час дождь 9/4 1020 м
[Cu Sc Ac As]
+17.2 +13.5 79 +18 +20 1016.7 972.8
15 12.08 Ю 1 60 км в посл. час дождь 9/5 1000 м
[Cu Sc Ac As]
+16.9 +14.0 83 +18 +19 1015.6 971.7
16 12.08 ЮВ 1 30 км в посл. час дождь {ливн. осадки} н/о +15.8 +14.8 94 +16 +16 1015.8 971.8
17 12.08 Ю 2 21 км н/о +16.1 +14.2 88 +16 +16 1015.1 971.1
18 12.08 Ю 2 40 км 9/6 480 м
[Cu med, cong Ac As Cs]
+15.3 +13.9 91 +15 +15 1015.6 971.5 +17.8 0.8
19 12.08 Ю 2 23 км 9/6 400 м
[Cu med, cong Cs]
+14.3 +13.8 97 +14 +14 1016.0 971.7
20 12.08 Ю 2 18 км 5/1 330 м
[Cu hum Ci fib]
+14.0 +13.7 98 +13 +13 1016.3 971.9
21 12.08 Ю 2 5000 м дымка н/о +14.2 +14.0 99 +14 +14 1016.3 972.0
22 12.08 Ю 2 7000 м дымка н/о +14.2 +13.8 97 +14 +14 1015.8 971.5
23 12.08 Ю 2 7000 м в посл. час дождь {ливн. осадки} н/о +14.3 +14.1 99 +14 +14 1016.4 972.1
00 13.08 ЮВ 2 6000 м дымка {ливн. осадки, дождь} н/о +14.6 +14.3 98 +14 +14 1015.8 971.6 0.0
01 13.08 Ю 2 4200 м дымка н/о +14.1 +14.0 99 +13 +13 1015.8 971.5
02 13.08 4100 м дымка н/о +14.0 +14.0 100 1016.0 971.7
03 13.08 СЗ 1 4600 м дымка н/о +13.9 +13.9 100 +14 +14 1016.1 971.7
04 13.08 Ю 2 8000 м в посл. час туман {дымка} н/о +13.8 +13.6 99 +13 +13 1016.3 971.9
05 13.08 ЮЗ 1 4200 м дымка н/о +13.6 +13.6 100 +14 +14 1016.5 972.1
06 13.08 ЮЗ 2 25 км 6/6 210 м
[St Ac lent]
+14.2 +13.5 96 +14 +15 1016.9 972.5 +13.6 0.0
07 13.08 ЮЗ 2 65 км 1/1 300 м
[Cu med, cong Ac lent]
+16.0 +13.0 82 +16 +21 1017.0 972.9
08 13.08 ЮЗ 3 >70 км 1/1 800 м
[Cu med, cong Ci sp]
+17.4 +11.4 68 +17 +24 1016.7 972.8
09 13.08 ЮЗ 5 >70 км 3/3 1050 м
[Cu med, cong]
+19.1 +10.4 57 +20 +24 1016.5 972.8
10 13.08 З 5 >70 км 4/4 1320 м
[Cu med, cong]
+20.4 +9.7 50 +22 +26 комфорт 1016.1 972.6
11 13.08 З 4 >70 км 8/5 1500 м
[Cu med, cong Ac cuf Ci sp]
+20.5 +9.1 48 +22 +25 комфорт 1015.8 972.4
12 13.08 З 3 >70 км 8/4 1500 м
[Cu med, cong Ac cuf Ci]
+21.5 +9.7 47 +23 +28 комфорт 1015.5 972.2
13 13.08 З 5 >70 км слаб. ливневой дождь 9/6 1500 м
[Cu med, cong Ac cuf Ci sp]
+20.4 +7.6 44 +21 +23 комфорт 1015.6 972.1
14 13.08 СЗ 5 >70 км в посл. час ливневой дождь 9/3 1500 м
[Cu med, cong Ac cuf Cs]
+21.2 +7.9 42 +22 +24 комфорт 1015.2 971.9
15 13.08 З 3 >70 км {ливн. осадки} 9/4 1500 м
[Cu med, cong Ac cuf Cs]
+20.7 +6.7 40 +22 +24 комфорт 1015.1 971.7
16 13.08 СЗ 4 35 км н/о +20.6 +8.8 47 +22 +22 комфорт 1015.2 971.8
17 13.08 СЗ 4 35 км н/о +19.6 +6.8 43 +20 +20 1015.7 972.1
18 13.08 С 4 >70 км 9/1 1500 м
[Sc diur, vesp Ac cuf Cs]
+17.8 +7.8 52 +18 +18 1016.2 972.3 +22.1 0.1
19 13.08 С 3 >70 км 9/1 1350 м
[Sc diur, vesp Ac As Cs]
+16.7 +7.1 53 +17 +17 1016.9 972.8
20 13.08 С 2 >70 км 10/0
[Ac As]
+16.3 +6.3 52 +16 +16 1017.7 973.5
21 13.08 С 2 35 км н/о +16.3 +6.1 51 +16 +16 1017.6 973.4
22 13.08 С 3 35 км н/о +16.4 +6.1 50 +16 +16 1017.4 973.3
23 13.08 С 3 35 км н/о +16.0 +5.7 50 +16 +16 1017.4 973.2
00 14.08 С 3 35 км н/о +15.8 +5.1 49 +15 +15 1017.6 973.3
01 14.08 С 2 35 км н/о +14.8 +5.0 52 +15 +15 1017.7 973.3
02 14.08 С 2 35 км н/о +13.7 +5.2 56 +13 +13 1018.1 973.5
03 14.08 СВ 1 35 км н/о +12.0 +5.6 65 +12 +12 1018.3 973.4
04 14.08 ЮВ 1 35 км н/о +11.3 +5.4 67 +11 +11 1018.5 973.5
05 14.08 СВ 1 35 км н/о +11.9 +5.7 66 +12 +12 1018.9 974.0
06 14.08 нст 1 >70 км 5/1 1500 м
[Sc Ac As]
+13.3 +7.1 66 +14 +15 1019.0 974.3 +10.8
07 14.08 Ю 1 >70 км 8/0
[Ac cast]
+14.8 +7.4 61 +15 +18 1018.5 974.1
08 14.08 З 2 70 км 6/3 1080 м
[Cu med, cong Ac trans]
+16.6 +8.1 57 +17 +21 1018.1 974.0
09 14.08 З 4 >70 км 8/5 1500 м
[Cu med, cong Ac cuf]
+18.5 +7.7 49 +19 +21 1017.7 973.9
10 14.08 З 4 70 км осадки на расстоянии 9/8 1500 м
[Cu med, cong Ac cuf]
+18.1 +7.6 50 +18 +19 1017.5 973.6
11 14.08 СЗ 3 65 км осадки на расстоянии 8/6 1500 м
[Cb calv Ac cuf]
+18.6 +7.2 47 +19 +22 1017.4 973.6
12 14.08 СЗ 3 >70 км 8/6 1500 м
[Cu med, cong Ac cuf]
+18.7 +5.7 42 +19 +22 1017.2 973.4
13 14.08 СЗ 4 65 км осадки на расстоянии 9/8 1500 м
[Cu med, cong Ac cuf]
+19.0 +4.7 39 +19 +20 1017.0 973.2
14 14.08 СЗ 5 >70 км в посл. час ливневой дождь 8/3 1500 м
[Cu med, cong Ac cuf]
+17.9 +6.3 47 +18 +19 1017.4 973.5
15 14.08 СЗ 2 >70 км {ливн. осадки} 6/4 1500 м
[Cu med, cong Ac cuf]
+19.5 +5.3 39 +21 +23 комфорт 1016.8 973.1
16 14.08 СЗ 3 35 км н/о +18.7 +4.8 40 +19 +19 1016.9 973.1
17 14.08 С 1 35 км н/о +18.8 +5.1 40 +20 +20 1016.9 973.1
18 14.08 С 2 >70 км 1/1 1500 м
[Cu med, cong Ac cuf]
+17.2 +5.0 44 +18 +18 1017.1 973.1 +20.3 0.1
19 14.08 В 2 >70 км 6/1 1350 м
[Sc diur, vesp Ac cuf]
+15.5 +4.0 46 +16 +16 1017.7 973.4
20 14.08 В 3 70 км 8/0
[Ac cuf]
+16.0 +4.9 48 +16 +16 1017.7 973.5
21 14.08 ЮВ 1 35 км н/о +14.4 +6.8 60 +15 +15 1018.1 973.6
22 14.08 В 1 35 км н/о +13.3 +7.5 68 +14 +14 1018.2 973.6
23 14.08 В 2 35 км н/о +12.6 +8.1 74 +12 +12 1018.2 973.5
00 15.08 нст 1 35 км н/о +11.9 +8.1 78 +12 +12 1018.1 973.3
01 15.08 В 1 35 км н/о +11.4 +8.2 81 +11 +11 1018.1 973.2
02 15.08 35 км н/о +10.8 +8.2 84 1017.8 972.8
03 15.08 нст 1 35 км н/о +10.5 +8.2 86 +10 +10 1017.4 972.4
04 15.08 35 км н/о +9.7 +8.5 92 1017.2 972.1
05 15.08 СВ 1 35 км н/о +10.1 +8.7 91 +10 +10 1017.4 972.3
06 15.08 нст 1 40 км 1/0
[Ac lent Ci fib]
+11.2 +9.5 89 +11 +13 1016.9 972.0 +9.6
07 15.08 З 2 45 км 3/0
[Ac lent Ci fib]
+13.7 +10.2 79 +13 +18 1016.4 971.9
08 15.08 ЮЗ 2 45 км осадки на расстоянии 6/0
[Ac lent Ci fib]
+15.2 +10.1 72 +15 +22 1015.6 971.4
09 15.08 З 2 50 км 9/0
[Ac und Ci fib]
+17.8 +10.9 64 +18 +25 1014.8 971.0
10 15.08 Ю 3 50 км 9/0
[Ac As Ci fib]
+18.2 +10.0 59 +19 +23 1014.4 970.7
11 15.08 ЮЗ 3 40 км в посл. час дождь 10/1 1000 м
[Cu hum Ac As]
+18.1 +10.6 62 +18 +21 1014.1 970.4
12 15.08 СВ 2 40 км слаб. дождь 10/1 750 м
[Cu med, cong Ac As]
+15.9 +13.6 86 +16 +19 1014.1 970.1 0.6
13 15.08 45 км в посл. час дождь 10/1 750 м
[Cu hum Ac As]
+17.5 +13.8 79 1013.5 969.8
14 15.08 ЮЗ 2 50 км слаб. дождь 10/1 750 м
[Cu hum Ac As]
+18.0 +13.1 73 +19 +21 1013.1 969.5
15 15.08 З 4 65 км слаб. дождь 9/0 2000 м
[Ac As Ci sp]
+17.6 +12.9 74 +17 +19 1013.1 969.4
16 15.08 ЮЗ 4 35 км слаб. ливневой дождь н/о +17.3 +11.9 71 +17 +17 1013.1 969.3
17 15.08 Ю 2 35 км в посл. час дождь {ливн. осадки} н/о +17.9 +12.0 68 +18 +18 1012.6 969.0
18 15.08 нст 1 70 км 9/4 1200 м
[Sc As trans Ci sp]
+16.7 +12.5 76 +18 +18 1013.1 969.3 +18.5 1
19 15.08 З 2 70 км 9/1 600 м
[Cb calv Ac As Ci fib]
+16.0 +12.1 78 +16 +16 1013.8 969.8
20 15.08 З 3 65 км в посл. час дождь 8/4 930 м
[Sc Ac As Ci fib]
+16.1 +12.9 81 +16 +16 1014.1 970.1
21 15.08 З 1 35 км {ливн. осадки, дождь} н/о +15.4 +12.8 84 +16 +16 1014.4 970.3
22 15.08 З 1 35 км н/о +15.0 +12.8 87 +15 +15 1014.6 970.5
23 15.08 ЮЗ 2 35 км н/о +14.2 +12.5 90 +14 +14 1014.6 970.3
00 16.08 З 1 35 км {ливн. осадки, дождь} н/о +14.7 +12.7 88 +15 +15 1014.7 970.5 0.0
01 16.08 З 2 35 км н/о +14.7 +12.7 88 +14 +14 1014.9 970.7
02 16.08 З 2 35 км н/о +14.7 +12.7 88 +14 +14 1015.4 971.2
03 16.08 З 2 35 км н/о +15.1 +11.9 81 +15 +15 1015.8 971.6
04 16.08 СЗ 2 30 км слаб. дождь н/о +15.3 +12.2 82 +15 +15 1016.2 972.0
05 16.08 СЗ 2 35 км в посл. час дождь {ливн. осадки} н/о +15.0 +12.6 86 +15 +15 1016.5 972.3
06 16.08 нст 1 55 км в посл. час дождь 9/9 540 м
[Sc]
+14.5 +13.7 95 +15 +15 1017.1 972.8 +13.9 0.7
07 16.08 ЮЗ 1 60 км 6/5 600 м
[Cu Sc Ac As]
+15.9 +13.8 87 +17 +19 1017.2 973.1
08 16.08 З 3 70 км слаб. ливневой дождь 9/9 500 м
[Cu Sc]
+16.6 +13.4 81 +16 +17 1017.3 973.3
09 16.08 З 4 >70 км в посл. час ливневой дождь 9/9 630 м
[Cu Sc]
+17.3 +12.2 72 +17 +18 1017.2 973.3
10 16.08 З 2 >70 км в посл. час ливневой дождь 9/9 1200 м
[Cu Sc]
+18.5 +10.8 61 +19 +21 1016.9 973.1
11 16.08 СЗ 2 >70 км 8/6 1170 м
[Cu med, cong Ac cuf]
+19.6 +10.4 55 +21 +25 комфорт 1016.2 972.6
12 16.08 З 3 >70 км {ливн. осадки} 9/6 1440 м
[Cu med, cong Ac cuf]
+20.1 +9.0 49 +22 +24 комфорт 1016.0 972.5 0.0
13 16.08 С 3 >70 км 9/6 1380 м
[Cu med, cong Ac cuf]
+19.4 +9.4 52 +21 +22 комфорт 1016.0 972.4
14 16.08 СЗ 5 >70 км 6/4 1440 м
[Cb calv Ac cuf]
+20.8 +9.9 50 +22 +24 комфорт 1015.9 972.5
15 16.08 СЗ 3 >70 км 6/5 1500 м
[Cu med, cong Ac cuf]
+20.3 +8.8 48 +22 +24 комфорт 1015.9 972.4
16 16.08 СЗ 2 35 км н/о +20.1 +8.5 47 +22 +22 комфорт 1015.9 972.4
17 16.08 СЗ 3 35 км н/о +20.3 +7.7 44 +22 +22 комфорт 1015.8 972.3
18 16.08 С 1 >70 км 5/0 2000 м
[Ac cuf Ci fib]
+17.8 +8.0 53 +19 +19 1016.3 972.4 +21.7 0.0
19 16.08 В 3 >70 км 6/0
[Ac cuf Ci]
+17.9 +8.0 52 +18 +18 1016.5 972.6
20 16.08 В 4 70 км 8/0 2000 м
[Ac cuf Ci]
+17.5 +9.0 57 +17 +17 1016.5 972.6
21 16.08 В 3 35 км {дымка} н/о +16.3 +9.3 63 +16 +16 1016.7 972.6
22 16.08 В 2 35 км н/о +15.7 +9.9 68 +16 +16 1016.7 972.5
23 16.08 35 км н/о +14.4 +10.2 76 1016.9 972.5
00 17.08 нст 1 35 км {дымка} н/о +14.1 +10.0 76 +14 +14 1016.5 972.1
01 17.08 В 1 35 км н/о +14.0 +10.6 80 +14 +14 1016.1 971.7
02 17.08 35 км н/о +12.7 +10.3 85 1016.2 971.6
03 17.08 С 1 35 км н/о +12.0 +10.3 89 +12 +12 1016.2 971.5
04 17.08 ЮВ 1 29 км н/о +12.0 +10.7 92 +12 +12 1016.1 971.4
05 17.08 29 км н/о +12.7 +11.2 91 1016.0 971.4
06 17.08 ЮЗ 2 30 км 10/3 1500 м
[Sc Ac As]
+13.2 +11.8 91 +12 +13 1016.1 971.6 +11.7
07 17.08 ЮЗ 1 35 км 9/0
[Ac As]
+13.7 +11.6 87 +14 +16 1015.9 971.5
08 17.08 ЮЗ 1 35 км 9/0
[Ac As Ci sp]
+15.0 +12.0 82 +16 +19 1015.5 971.3
09 17.08 З 2 35 км в посл. час дождь 9/0
[Ac As]
+16.9 +12.5 75 +17 +21 1015.2 971.3
10 17.08 З 1 35 км 9/8 1500 м
[Sc Ac As Ci sp]
+17.4 +11.8 70 +18 +21 1015.2 971.4
11 17.08 ЮЗ 2 45 км 9/0
[Ac As]
+18.2 +12.2 68 +19 +24 1014.4 970.7
12 17.08 ЮЗ 4 45 км {дождь} 9/1 1050 м
[Cu hum Ac As]
+19.8 +11.7 60 +21 +24 комфорт 1013.4 970.0 0.0
13 17.08 Ю 4 45 км 9/0
[Ac As]
+20.6 +12.4 59 +23 +26 комфорт 1013.1 969.8
14 17.08 Ю 3 65 км 10/0
[Ac As]
+19.9 +12.5 62 +22 +24 комфорт 1012.9 969.5
15 17.08 Ю 3 60 км 10/0 2000 м
[Ac As]
+20.5 +12.5 60 +23 +24 комфорт 1012.5 969.2
16 17.08 ЮЗ 2 35 км н/о +20.3 +12.8 62 +23 +23 комфорт 1011.9 968.6
17 17.08 35 км н/о +19.5 +13.5 68 1012.1 968.7
18 17.08 Ю 2 70 км 9/8 1500 м
[Sc Ac As]
+18.9 +12.4 66 +20 +20 1011.8 968.3 +20.9 0.0
19 17.08 60 км 9/6 1500 м
[Sc Ac As]
+18.2 +12.8 71 1012.0 968.4
20 17.08 З 1 55 км 10/1 1440 м
[Sc As trans]
+18.1 +12.9 72 +19 +19 1012.0 968.4
21 17.08 ЮЗ 2 35 км н/о +18.2 +12.6 70 +19 +19 1011.9 968.3
22 17.08 ЮЗ 2 35 км н/о +17.4 +12.5 73 +18 +18 1011.7 968.0
23 17.08 ЮЗ 2 35 км н/о +17.3 +12.7 74 +18 +18 1011.7 968.0
00 18.08 Ю 2 35 км н/о +17.3 +12.0 71 +18 +18 1011.5 967.8
01 18.08 Ю 2 35 км н/о +17.5 +12.1 71 +18 +18 1011.2 967.6
02 18.08 Ю 2 35 км н/о +17.1 +12.2 73 +17 +17 1011.1 967.4
03 18.08 Ю 3 35 км н/о +17.0 +12.6 75 +17 +17 1010.8 967.1
04 18.08 Ю 3 35 км н/о +16.6 +13.0 79 +16 +16 1010.9 967.2
05 18.08 15 км слаб. дождь {морось} н/о +15.3 +15.0 98 1010.9 967.0
06 18.08 нст 1 60 км слаб. дождь 9/9 60 м
[Cu Sc Ac trans]
+15.5 +15.2 98 +16 +16 1010.9 967.0 +15.2 0.3
07 18.08 60 км в посл. час дождь 9/9 150 м
[Sc Ac trans]
+16.4 +15.0 91 1010.6 966.9
08 18.08 ЮЗ 2 55 км в посл. час дождь 6/1 660 м
[Cu hum Ac lent]
+17.8 +15.2 85 +18 +22 1010.0 966.5
09 18.08 ЮЗ 3 65 км {дождь} 3/1 720 м
[Cu hum Ac lent]
+20.5 +15.4 73 +24 +30 комфорт 1009.3 966.2
10 18.08 З 6 >70 км 3/1 870 м
[Cu med, cong Ac lent]
+22.5 +14.8 62 +26 +30 жарко 1008.8 966.0
11 18.08 З 6 >70 км 3/3 1230 м
[Cu med, cong]
+25.0 +15.0 54 +28 +32 жарко 1008.4 966.0
12 18.08 З 6 >70 км {дождь} 5/5 1500 м
[Cu med, cong Ac lent]
+27.5 +14.8 46 +30 +33 жарко 1007.6 965.6 0.0
13 18.08 З 7-13
{11}
>70 км 4/3 1500 м
[Cu med, cong Ac lent]
+28.8 +14.5 42 +31 +33 жарко 1007.2 965.4
14 18.08 З 8-14
{14}
>70 км 5/1 1500 м
[Cu med, cong Ac lent]
+28.4 +14.2 42 +31 +31 душно 1007.4 965.5
15 18.08 З 9-14
{14}
>70 км 3/3 1500 м
[Cu med, cong Ac lent]
+29.1 +13.3 38 +31 +31 жарко 1007.2 965.4
16 18.08 З 6
{14}
35 км н/о +29.5 +13.9 38 +31 +31 жарко 1007.0 965.3
17 18.08 З 5 35 км н/о +29.0 +13.6 39 +31 +31 жарко 1007.0 965.2
18 18.08 ЮЗ 2
{14}
>70 км 5/1 1500 м
[Cu med, cong Ac cuf Ci ing]
+27.0 +14.1 45 +29 +29 жарко 1006.9 964.8 +29.7 0.0
19 18.08 Ю 3 >70 км 8/4 1410 м
[Cu med, cong Ac cuf Ci ing]
+25.6 +14.4 50 +28 +28 жарко 1007.7 965.4
20 18.08 Ю 2 65 км гроза без осадков 9/6 1260 м
[Cb cap Ac cuf Ci ing]
+24.9 +14.2 51 +27 +27 жарко 1007.7 965.3
21 18.08 С 7-16
{16}
35 км {гроза} н/о +21.7 +14.9 65 +25 +25 комфорт 1010.4 967.4
22 18.08 С 3 35 км н/о +20.5 +15.1 71 +24 +24 комфорт 1010.4 967.3
23 18.08 В 3 35 км н/о +20.0 +14.7 72 +23 +23 комфорт 1010.9 967.7
00 19.08 С 3
{16}
35 км {гроза} н/о +20.8 +13.4 63 +24 +24 комфорт 1011.2 968.1
01 19.08 ЮВ 2 35 км н/о +19.0 +14.1 73 +21 +21 комфорт 1012.5 969.1

 

Местоположение метеостанции Усти-над-Лабем (Чехия): широта 50.68 долгота 14.03 высота над уровнем моря 379 м.

В архиве по умолчанию представлена погода в Усти-над-Лабем за последнюю неделю. Архивные данные за месяц целиком и за предыдущие месяцы, начиная с января 2011 года, Вы можете получить, выбрав интересующий диапазон дат из раскрывающегося списка и нажав кнопку "Ввод!".


*Определитесь, кто Вы:
робот инопланетянин человек

Внимание! Время в таблицах - всемирное. Для получения местного времени необходимо прибавить поправку, которая равна 1 ч.

Смотрите также архив погоды в соседних городах и на ближайших метеорологических станциях:

Погода в Милешовке (Чехия) (16 км)
Погода в Циннвальд-Георгенфельде (Германия) (20 км)
Погода в Докшанах (Чехия) (25 км)
Погода в Лихтенхайн-Миттельндорфе (Германия) (31 км)
Погода в Дрездене (Германия) (53 км)
Погода в Тушимице (Чехия) (60 км)
Погода в Мариенберге (Германия) (62 км)
Погода в Праге (Чехия) (66 км)
Погода в Либереце (Чехия) (70 км)
Погода в Прага аэропорту (Чехия) (72 км)

Пояснения к столбцам:

Ветер - указаны скорость ветра в м/с - средняя за 10 мин, порывы в срок и между сроками (в фигурных скобках) и направление, откуда дует ветер: С - северный, СВ - северо-восточный, В - восточный, ЮВ - юго-восточный, Ю - южный, ЮЗ - юго-западный, З - западный, СЗ - северо-западный.
Видимость - горизонтальная дальность видимости в метрах или километрах. При видимости от 1 до 10 км при отсутствии осадков обычно наблюдается дымка, при ухудшении видимости до 1 км и менее - туман. В сухую погоду видимость может ухудшаться дымом, пылью или мглою.
Явления - указаны атмосферные явления, наблюдавшиеся в срок или в последний час перед сроком; фигурными скобками обозначены явления, наблюдавшиеся между сроками (за 1-3 часа до срока); квадратными скобками обозначены град или гололедные отложения с указанием их диаметра в мм.
Облачность - указаны через наклонную черту общая и нижняя облачность в баллах и высота нижней границы облаков в метрах; квадратными скобками обозначены формы облаков: Ci - перистые, Cs - перисто-слоистые, Cc - перисто-кучевые, Ac - высококучевые, As - высокослоистые, Sc - слоисто-кучевые, Ns - слоисто-дождевые, Cu - кучевые, Cb - кучево-дождевые. Подробнее классификацию облаков см. в Атласе облаков (PDF).
T - Температура воздуха - температура, измеренная на высоте 2 м над землей.
Td - Температура точки росы - температура, при понижении до которой содержащийся в воздухе водяной пар достигнет насыщения.
f - Относительная влажность воздуха - влажноcть воздуха, измеренная на высоте 2 м над землей.
Te - Эффективная температура - температура, которую ощущает одетый по сезону человек в тени. Характеристика душности погоды. При расчете учитывается влияние влажности воздуха и скорости ветра на теплоощущения человека.
Tes - Эффективная температура на солнце - температура, которую ощущает человек, с поправкой на солнечный нагрев. Характеристика знойности погоды. Зависит от высоты солнца над горизонтом, облачности и скорости ветра. Ночью, в пасмурную погоду, а также при ветре 12 м/с и более поправка равна нулю.
P - Атмосферное давление - приведенное к уровню моря атмосферное давление.
Po - Атмосферное давление - измеренное на уровне метеостанции атмосферное давление.
Tmin - Минимальная температура - минимум температуры воздуха на высоте 2 м над землей.
Tmax - Максимальная температура - максимум температуры воздуха на высоте 2 м над землей.
R - Количество осадков - Количество выпавших осадков за период времени, мм. При наведении курсора мыши на число - период времени, за который выпало указанное количество осадков.
R24 - Количество осадков - Количество выпавших осадков за 24 часа, мм.
S - Снежный покров - Высота снежного покрова, см. При наведении курсора мыши на число - состояние снежного покрова и степень покрытия местности в баллах.